Regional Weather Roundup
Issued by NWS Wakefield, VA

Home | Current Version | Previous Version | Graphics & Text | Print | Product List | Glossary Off
Versions: 1 2 3 4 5 6 7 8 9 10 11 12 13 14 15 16 17 18 19 20 21 22 23 24 25 26 27 28 29 30 31 32 33 34 35 36 37 38 39 40 41 42 43 44 45 46 47 48 49 50

000
ASUS41 KAKQ 231015
RWRAKQ

REGIONAL WEATHER ROUNDUP
NATIONAL WEATHER SERVICE WAKEFIELD VA
600 AM EDT SAT MAY 23 2015

Note: "fair" indicates few or no clouds below 12,000 feet with no
significant weather and/or obstructions to visibility. * = Denotes
station may not report precipitation (e.g., rain,snow,etc.),
thunder or fog.

VAZ042-051-052>054-056-231100-
NORTHERN VIRGINIA

CITY           SKY/WX    TMP DP  RH WIND       PRES   REMARKS
WASH NATIONAL  MOCLDY    55  30  38 NW8       30.39R
DULLES         MOCLDY    48  31  51 CALM      30.39R
FORT BELVOIR   PTCLDY    51  33  49 NW3       30.38R
QUANTICO       PTCLDY    54  28  36 N10       30.39R
FREDERICKSBRG* PTCLDY    56  32  39 NW6       30.38R
STAFFORD*      PTCLDY    49  31  50 CALM      30.42R
WARRENTON      PTCLDY    47  41  81 CALM      30.39R
CULPEPER*      MOCLDY    48  32  53 N6        30.40R
MANASSAS*      MOCLDY    52  32  46 NW3       30.39R
LEESBURG*      PTCLDY    46  34  61 CALM      30.40R
WINCHESTER     PTCLDY    41  32  70 W3        30.39R
FRONT ROYAL*   FAIR      43  37  81 CALM      30.39R
LURAY*         FAIR      46  41  81 CALM      30.39R
$$

VAZ048-049-060>072-079>083-231100-
CENTRAL AND SOUTH CENTRAL VIRGINIA

CITY           SKY/WX    TMP DP  RH WIND       PRES   REMARKS
RICHMOND       PTCLDY    55  42  61 N7        30.36R
CHESTERFIELD*  NOT AVBL
PETERSBURG*    CLEAR     55  46  71 NE6       30.37R
HANOVER        CLEAR     51  43  74 CALM      30.38R
TAPPAHANNOCK*  CLEAR     55  32  41 NW3       30.37R
QUINTON*       FAIR      54  41  62 CALM      30.36R
CHARLOTTSVILLE CLEAR     50  39  66 CALM      30.38R
GORDONSVILLE*  FAIR      51  31  46 CALM      30.38R
ORANGE*        PTCLDY    54  28  37 CALM      30.39R
LOUISA*        CLEAR     54  36  50 N5        30.37R
BUMPASS*       FAIR      55  32  42 N8        30.37R
FARMVILLE*     CLEAR     48  47  95 CALM      30.37R
CREWE*         FAIR      51  45  78 CALM      30.37R
FORT PICKETT*  FAIR      52  45  76 CALM      30.37R
CHASE CITY*    FAIR      53  51  93 N3        30.38R
CLARKSVILLE*   FAIR      48  46  93 CALM      30.35R
SOUTH HILL*    MOCLDY    53  48  82 CALM      30.42R
LAWRENCEVILLE* FAIR      55  46  71 CALM      30.36R
EMPORIA*       PTCLDY    54  46  76 NW7       30.37R
$$

VAZ088>098-231100-
SOUTHEAST VIRGINIA

CITY           SKY/WX    TMP DP  RH WIND       PRES   REMARKS
NORFOLK        CLEAR     61  50  67 N5        30.33R
VIRGINIA BEACH PTCLDY    53  46  77 CALM      30.33R
NORFOLK NAVAL  PTCLDY    66  51  58 N8        30.35R
WEST POINT*    CLEAR     52  47  83 CALM      30.37R
SALUDA*        FAIR      59  39  48 N10G17    30.35R
NEWPORT NEWS   CLEAR     60  46  59 N6        30.35R
LANGLEY AFB    CLEAR     59  50  71 NE8       30.33R
FORT EUSTIS    CLEAR     59  47  64 N6        30.33R
WILLIAMSBURG*  CLEAR     57  54  88 N3        30.36R
HR EXEC AP*    FAIR      45  41  87 CALM      30.35R
FRANKLIN*      PTCLDY    47  46  93 CALM      30.35R
WAKEFIELD      CLEAR     53  48  83 CALM      30.35R
$$

VAZ020-022-025-037-045-231100-
WEST CENTRAL AND SOUTHWEST VIRGINIA

CITY           SKY/WX    TMP DP  RH WIND       PRES   REMARKS
STAUNTON*      CLEAR     53  29  40 N7        30.41R
WAYNESBORO*    FAIR      48  39  71 W5        30.40R
HOT SPRINGS VA CLEAR     48  40  73 W7        30.39R
LYNCHBURG      CLEAR     46  43  89 CALM      30.38R
DANVILLE       PTCLDY    48  45  89 CALM      30.36R
SOUTH BOSTON*  FAIR      47  45  95 CALM      30.35R
MARTINSVILLE   PTCLDY    44  44 100 CALM      30.39R
ROANOKE        CLEAR     50  45  83 CALM      30.38R
BLACKSBURG     CLEAR     42  41  96 CALM      30.41R
DUBLIN*        CLEAR     45  44  95 CALM      30.40R
MARION*        CLEAR     42  40  93 CALM      30.42R
HILLSVILLE*    PTCLDY    48  40  75 S3        30.39R
RICHLANDS*     FAIR      49  24  36 E3        30.39R
WISE*          CLEAR     50  37  62 CALM      30.40R
ABINGDON*      PTCLDY    48  42  80 CALM      30.39R
$$

MDZ021>025-VAZ099-100-231100-
SOUTHERN MARYLAND AND THE DELMARVA PENINSULA

CITY           SKY/WX    TMP DP  RH WIND       PRES   REMARKS
PATUXENT RIVER CLEAR     57  30  35 N10       30.36R
BAY BRIDGE APT   N/A    N/A N/A N/A NW8       30.37R
LEONARDTOWN    CLEAR     55  28  35 NW3       30.37R
DOVER          CLEAR     50  37  61 W3        30.32R
GEORGETOWN     CLEAR     50  36  58 NW3       30.35R
EASTON         CLEAR     53  39  58 N3        30.39R
CAMBRIDGE      CLEAR     57  36  44 N9        30.35R
SALISBURY      CLEAR     53  34  48 N9        30.34R
OCEAN CITY     CLEAR     51  38  60 N8        30.33R
WALLOPS ISLAND CLEAR     54  37  52 NW6       30.34R
ACCOMACK*      CLEAR     57  41  54 N8        30.34R
$$

NCZ012>017-030>032-231100-
NORTH CENTRAL AND EASTERN NORTH CAROLINA

CITY           SKY/WX    TMP DP  RH WIND       PRES   REMARKS
ROANOKE RAPIDS FAIR      46  46 100 CALM      30.35R
RALEIGH        PTCLDY    49  47  93 CALM      30.35R
ELIZABETH CITY PTCLDY    55  52  89 CALM      30.32R
AHOSKIE*       MOCLDY    49  47  94 CALM      30.35R
EDENTON*       PTCLDY    59  52  78 NW3       30.32R
CURRITUCK*     PTCLDY    59  50  72 W5        30.33R
KILL DEVIL HLS PTCLDY    64  53  67 W5        30.31R
MANTEO         PTCLDY    64  55  70 W5        30.32R
CAPE HATTERAS  CLEAR     60  51  72 NW5       30.32R
TARBORO*       FAIR      48  47  96 CALM      30.35R FOG
GOLDSBORO      CLEAR     55  51  86 CALM      30.32R
WASHINGTON     CLEAR     52  51  95 CALM      30.33R
GREENVILLE     CLEAR     52  52 100 CALM      30.34R FOG
NEW BERN       CLEAR     52  49  89 CALM      30.34R
WILMINGTON     CLEAR     55  53  93 CALM      30.32R
$$

VAZ048-231100-
ELSEWHERE

CITY           SKY/WX    TMP DP  RH WIND       PRES   REMARKS
HARRISBURG PA  PTCLDY    48  22  35 NW5       30.36R
BALTIMORE      MOCLDY    46  33  60 CALM      30.37R
ANNAPOLIS      CLEAR     52  30  43 W6        30.37R
ANDREWS AFB    PTCLDY    52  30  42 NW6       30.37R
PHILADELPHIA   PTCLDY    51  28  41 N9        30.35R
HENDERSON NC   CLEAR     53  45  73 CALM      30.35R
GREENSBORO     MOCLDY    53  47  79 CALM      30.34R
ROCKY MOUNT    PTCLDY    51  50  96 CALM      30.34R
$$

VAZ100-231100-
MARINE

STATION/POSITION TIME  TEMP    WIND        PRES    WAVE   SWELL
                       AIR SEA DIR/SP/G            HT/PER HT/PER
                 (UTC) (F)     (DEG/KT/KT) (MB)    (FT/S) (FT/S)
BRANDYWINE LGT   0900   59 62  360/ 23/ 25 1026.1R
CAPE MAY NJ      0900   59 67  260/  2/  6 1025.7R
LEWES DE         0900   60 63  330/ 16/ 19 1026.3R
15NM E FENWICK I 0950   60 59              1026.5R   3/ 3
OCEAN-CITY-INLET 0900   59 59  350/ 11/ 14 1025.9R
WACHAPREAGUE VA  0900   60 67   10/  3/  6 1026.4R
THOMAS POINT MD  1000   54 64  310/ 13/ 14 1028.8R
GOOSES REEF MD   1000   59 65  350/ 19/ 21 1028.6R   2/ 3
SOLOMONS ISLAND  0900      68                N/A
BISHOPS HEAD MD  0900   58 65  340/  9/ 11 1026.2R
PINEY POINT MD   0900           10/ 11/ 13   N/A
CAMBRIDGE MD     0900   61 70  340/ 13/ 15 1026.7R
LEWISETTA VA     0900   62 68              1026.8R
RAPPAHANNOCK LGT 0900           10/ 22/ 24 1026.8R
STINGRAY PT      1000   64 68  360/ 16/ 17 1027.0R   2/ 3
YORK RVR RNG VA  0900   65      20/ 13/ 15 1025.6R
YORKTOWN VA      0900   61 70  360/  9/ 11 1026.3R
JAMESTOWN VA     1000   60 73  350/  4/  6 1027.0R
DOMINION TERM VA 0900   65     330/  7/ 12 1026.1R
KIPTOPEKE VA     0900      72   30/  5/  8   N/A
CHES BAY BRIDGE  0900   65 66  300/  9/ 11 1025.9R
CAPE HENRY VA    0900   64     310/ 10/ 11 1024.9R
CHESAPEAKE LGHT  0900   63     310/  7/  8 1026.8R
WILLOUBY STN VA  0900   63     360/  6/  7 1027.0R
CAPE HENRY BUOY  0928      62                N/A     1/ 7
1ST LANDING BUOY 1000      66              1026.7R
CAPE CHARLES BUO 0926      65                N/A     1/ 7   2/ 7
OFFSHORE WE BUOY 0911      60                N/A     2/11   2/11
64NM E OF VA BCH 0950   61 59  320/ 12/ 12 1026.2R   2/ 8   2/ 8
DUCK PIER NC     0900   67 64  240/  7/  8 1024.6R
44100 DUCK FRF   0924      61                N/A     1/ 7
44056 DUCK FRF   0911      65                N/A     1/ 8
OREGON INLET NC  0900   66 69  240/  5/  7 1025.6R
HATTERAS NC      0900   69 72  310/  6/  7 1025.3R
DIAMOND SHLS NC  0950   69 77  340/  8/ 10 1026.4R   3/ 9   3/ 9
CAPE LOOKOUT NC  1000   66     360/  1/  1 1026.6R
$$


USA.gov is the U.S. government's official web portal to all federal, state and local government web resources and services.